| time (UTC) | temp C | wind direction | speed KPH | gust KPH | rain 1hr cm | rain 24hr cm | rain mn cm | humidity % | barometer mb |
| 20260906040323 | 23 | 51 | 0.0 | 0.0 | 0.00 | 0.00 | 0.00 | 92 | 1014.5 |
| 20260906035819 | 23 | 51 | 0.0 | 0.0 | 0.00 | 0.00 | 0.00 | 92 | 1014.5 |
| 20260906035314 | 23 | 51 | 0.0 | 0.0 | 0.00 | 0.00 | 0.00 | 92 | 1014.5 |
| 20260906034809 | 23 | 51 | 0.0 | 0.0 | 0.00 | 0.00 | 0.00 | 92 | 1014.6 |
| 20260906034303 | 23 | 51 | 0.0 | 0.0 | 0.00 | 0.00 | 0.00 | 91 | 1014.6 |
| 20260906033759 | 24 | 51 | 0.0 | 0.0 | 0.00 | 0.00 | 0.00 | 90 | 1014.5 |
| 20260906033258 | 24 | 51 | 0.0 | 0.0 | 0.00 | 0.00 | 0.00 | 90 | 1014.5 |
| 20260906032755 | 24 | 51 | 0.0 | 0.0 | 0.00 | 0.00 | 0.00 | 90 | 1014.4 |
| 20260906032250 | 24 | 51 | 0.0 | 0.0 | 0.00 | 0.00 | 0.00 | 90 | 1014.4 |
| 20260906031744 | 24 | 51 | 0.0 | 0.0 | 0.00 | 0.00 | 0.00 | 90 | 1014.4 |
| 20260906031241 | 24 | 51 | 0.0 | 0.0 | 0.00 | 0.00 | 0.00 | 90 | 1014.3 |
| 20260906030735 | 24 | 51 | 0.0 | 0.0 | 0.00 | 0.00 | 0.00 | 90 | 1014.5 |
| 20260906030230 | 24 | 51 | 0.0 | 0.0 | 0.00 | 0.00 | 0.00 | 90 | 1014.5 |
| 20260906025729 | 24 | 51 | 0.0 | 0.0 | 0.00 | 0.00 | 0.00 | 90 | 1014.3 |
| 20260906025229 | 24 | 51 | 0.0 | 0.0 | 0.00 | 0.00 | 0.00 | 90 | 1014.4 |
| 20260906024728 | 24 | 51 | 0.0 | 0.0 | 0.00 | 0.00 | 0.00 | 89 | 1014.3 |
| 20260906024227 | 25 | 51 | 0.0 | 0.0 | 0.00 | 0.00 | 0.00 | 89 | 1014.3 |
| 20260906023723 | 25 | 51 | 0.0 | 0.0 | 0.00 | 0.00 | 0.00 | 89 | 1014.0 |
| 20260906023218 | 25 | 51 | 0.0 | 0.0 | 0.00 | 0.00 | 0.00 | 88 | 1014.4 |
| 20260906022714 | 25 | 51 | 0.0 | 0.0 | 0.00 | 0.00 | 0.00 | 88 | 1014.7 |
| 20260906022209 | 25 | 51 | 0.0 | 0.0 | 0.00 | 0.00 | 0.00 | 89 | 1014.5 |
| 20260906021705 | 25 | 51 | 0.0 | 0.0 | 0.00 | 0.00 | 0.00 | 89 | 1014.6 |
| 20260906021204 | 25 | 51 | 0.0 | 0.0 | 0.00 | 0.00 | 0.00 | 88 | 1014.3 |
| 20260906020659 | 25 | 51 | 0.0 | 0.0 | 0.00 | 0.00 | 0.00 | 89 | 1014.4 |
| 20260906020153 | 25 | 51 | 0.0 | 0.0 | 0.00 | 0.00 | 0.00 | 89 | 1014.4 |
| 20260906015647 | 25 | 51 | 0.0 | 0.0 | 0.00 | 0.00 | 0.00 | 89 | 1014.4 |
| 20260906015146 | 25 | 51 | 0.0 | 0.0 | 0.00 | 0.00 | 0.00 | 89 | 1014.2 |
| 20260906014641 | 25 | 51 | 0.0 | 1.6 | 0.00 | 0.00 | 0.00 | 89 | 1014.3 |
| 20260906014137 | 25 | 51 | 0.0 | 0.0 | 0.00 | 0.00 | 0.00 | 89 | 1014.3 |
| 20260906013632 | 24 | 51 | 0.0 | 0.0 | 0.00 | 0.00 | 0.00 | 89 | 1014.1 |
| 20260906013127 | 24 | 51 | 0.0 | 0.0 | 0.00 | 0.00 | 0.00 | 88 | 1014.1 |
| 20260906012622 | 25 | 51 | 0.0 | 0.0 | 0.00 | 0.00 | 0.00 | 88 | 1014.1 |
| 20260906012117 | 25 | 51 | 0.0 | 0.0 | 0.00 | 0.00 | 0.00 | 87 | 1013.6 |
| 20260906011612 | 25 | 51 | 0.0 | 0.0 | 0.00 | 0.00 | 0.00 | 87 | 1013.2 |
| 20260906011107 | 25 | 51 | 0.0 | 0.0 | 0.00 | 0.00 | 0.00 | 86 | 1013.4 |
| 20260906010603 | 25 | 51 | 0.0 | 0.0 | 0.00 | 0.00 | 0.00 | 86 | 1013.2 |
| 20260906010059 | 25 | 51 | 0.0 | 0.0 | 0.00 | 0.00 | 0.00 | 85 | 1013.0 |
| 20260906005558 | 25 | 51 | 0.0 | 0.0 | 0.00 | 0.00 | 0.00 | 84 | 1012.6 |
| 20260906005056 | 25 | 51 | 0.0 | 1.6 | 0.00 | 0.00 | 0.00 | 84 | 1012.6 |
| 20260906004556 | 25 | 51 | 0.0 | 1.6 | 0.00 | 0.00 | 0.00 | 85 | 1012.7 |
| 20260906004051 | 26 | 51 | 0.0 | 0.0 | 0.00 | 0.00 | 0.00 | 83 | 1012.7 |
| 20260906003546 | 26 | 51 | 0.0 | 0.0 | 0.00 | 0.00 | 0.00 | 82 | 1012.8 |
| 20260906003042 | 26 | 51 | 0.0 | 0.0 | 0.00 | 0.00 | 0.00 | 81 | 1012.7 |
| 20260906002537 | 26 | 51 | 0.0 | 0.0 | 0.00 | 0.00 | 0.00 | 82 | 1012.8 |
| 20260906002032 | 26 | 51 | 0.0 | 1.6 | 0.00 | 0.00 | 0.00 | 81 | 1012.7 |
| 20260906001527 | 26 | 51 | 0.0 | 0.0 | 0.00 | 0.00 | 0.00 | 79 | 1012.9 |
| 20260906001022 | 26 | 51 | 0.0 | 0.0 | 0.00 | 0.00 | 0.00 | 79 | 1013.0 |
| 20260906000518 | 26 | 51 | 0.0 | 0.0 | 0.00 | 0.00 | 0.00 | 77 | 1012.7 |
| 20260906000018 | 26 | 50 | 0.0 | 0.0 | 0.00 | 0.00 | 0.00 | 77 | 1013.0 |
| 20260905235511 | 27 | 64 | 0.0 | 0.0 | 0.00 | 0.00 | 0.00 | 76 | 1013.2 |
| 20260905235007 | 27 | 64 | 0.0 | 0.0 | 0.00 | 0.00 | 0.00 | 75 | 1013.3 |
| 20260905234502 | 27 | 64 | 0.0 | 0.0 | 0.00 | 0.00 | 0.00 | 75 | 1013.2 |
| 20260905233956 | 27 | 64 | 0.0 | 3.2 | 0.00 | 0.00 | 0.00 | 75 | 1013.0 |
| 20260905233452 | 27 | 64 | 0.0 | 0.0 | 0.00 | 0.00 | 0.00 | 73 | 1013.0 |
| 20260905232950 | 28 | 63 | 3.2 | 3.2 | 0.00 | 0.00 | 0.00 | 73 | 1013.2 |
| 20260905232447 | 28 | 63 | 0.0 | 1.6 | 0.00 | 0.00 | 0.00 | 71 | 1013.3 |
| 20260905231942 | 28 | 72 | 1.6 | 1.6 | 0.00 | 0.00 | 0.00 | 68 | 1013.1 |
| 20260905231433 | 29 | 72 | 0.0 | 1.6 | 0.00 | 0.00 | 0.00 | 67 | 1013.0 |
| 20260905230928 | 30 | 76 | 0.0 | 1.6 | 0.00 | 0.00 | 0.00 | 65 | 1013.1 |
| 20260905230426 | 30 | 75 | 0.0 | 1.6 | 0.00 | 0.00 | 0.00 | 62 | 1013.1 |
| 20260905225919 | 30 | 18 | 0.0 | 4.8 | 0.00 | 0.00 | 0.00 | 62 | 1013.1 |
| 20260905225415 | 31 | 350 | 0.0 | 4.8 | 0.00 | 0.00 | 0.00 | 59 | 1013.1 |
| 20260905224910 | 31 | 330 | 0.0 | 0.0 | 0.00 | 0.00 | 0.00 | 57 | 1012.7 |
| 20260905224406 | 31 | 330 | 0.0 | 0.0 | 0.00 | 0.00 | 0.00 | 57 | 1012.7 |
| 20260905223859 | 31 | 330 | 3.2 | 6.4 | 0.00 | 0.00 | 0.00 | 57 | 1012.7 |
| 20260905223357 | 31 | 321 | 0.0 | 4.8 | 0.00 | 0.00 | 0.00 | 59 | 1012.6 |
| 20260905222852 | 31 | 326 | 1.6 | 4.8 | 0.00 | 0.00 | 0.00 | 61 | 1012.6 |
| 20260905222350 | 31 | 52 | 1.6 | 3.2 | 0.00 | 0.00 | 0.00 | 58 | 1012.7 |
| 20260905221841 | 30 | 81 | 0.0 | 0.0 | 0.00 | 0.00 | 0.00 | 61 | 1012.3 |
| 20260905221338 | 30 | 81 | 0.0 | 0.0 | 0.00 | 0.00 | 0.00 | 61 | 1012.5 |
| 20260905220833 | 30 | 58 | 1.6 | 3.2 | 0.00 | 0.00 | 0.00 | 60 | 1012.7 |
| 20260905220329 | 30 | 58 | 0.0 | 0.0 | 0.00 | 0.00 | 0.00 | 61 | 1012.7 |
| 20260905215828 | 29 | 57 | 3.2 | 4.8 | 0.00 | 0.00 | 0.00 | 61 | 1012.6 |
| 20260905215324 | 29 | 54 | 0.0 | 0.0 | 0.00 | 0.00 | 0.00 | 61 | 1013.0 |
| 20260905214821 | 30 | 64 | 3.2 | 11.3 | 0.00 | 0.00 | 0.00 | 60 | 1012.9 |
| 20260905214316 | 30 | 62 | 3.2 | 17.7 | 0.00 | 0.00 | 0.00 | 59 | 1013.2 |
| 20260905213810 | 30 | 57 | 4.8 | 20.9 | 0.00 | 0.00 | 0.00 | 57 | 1013.4 |
| 20260905213306 | 31 | 94 | 9.7 | 14.5 | 0.00 | 0.00 | 0.00 | 57 | 1013.1 |
| 20260905212801 | 30 | 53 | 9.7 | 16.1 | 0.00 | 0.00 | 0.00 | 60 | 1013.0 |
| 20260905212301 | 30 | 76 | 4.8 | 12.9 | 0.00 | 0.00 | 0.00 | 62 | 1013.1 |
| 20260905211755 | 30 | 124 | 9.7 | 12.9 | 0.00 | 0.00 | 0.00 | 60 | 1012.9 |
| 20260905211250 | 31 | 68 | 6.4 | 17.7 | 0.00 | 0.00 | 0.00 | 57 | 1013.0 |
| 20260905210748 | 35 | 97 | 11.3 | 27.4 | 0.00 | 0.00 | 0.00 | 51 | 1013.2 |
| 20260905210246 | 37 | 232 | 6.4 | 16.1 | 0.00 | 0.00 | 0.00 | 48 | 1012.8 |
| 20260905205745 | 36 | 225 | 1.6 | 11.3 | 0.00 | 0.00 | 0.00 | 48 | 1012.6 |
| 20260905205240 | 36 | 219 | 4.8 | 6.4 | 0.00 | 0.00 | 0.00 | 48 | 1012.4 |
| 20260905204740 | 36 | 222 | 1.6 | 4.8 | 0.00 | 0.00 | 0.00 | 48 | 1012.5 |
| 20260905204235 | 37 | 225 | 1.6 | 4.8 | 0.00 | 0.00 | 0.00 | 48 | 1012.3 |
| 20260905203735 | 37 | 235 | 4.8 | 4.8 | 0.00 | 0.00 | 0.00 | 42 | 1012.4 |
| 20260905203230 | 37 | 222 | 3.2 | 4.8 | 0.00 | 0.00 | 0.00 | 42 | 1012.5 |
| 20260905202726 | 37 | 220 | 0.0 | 4.8 | 0.00 | 0.00 | 0.00 | 42 | 1012.6 |
| 20260905202221 | 37 | 217 | 3.2 | 6.4 | 0.00 | 0.00 | 0.00 | 38 | 1012.6 |
| 20260905201716 | 37 | 225 | 0.0 | 4.8 | 0.00 | 0.00 | 0.00 | 41 | 1012.6 |
| 20260905201211 | 37 | 219 | 1.6 | 4.8 | 0.00 | 0.00 | 0.00 | 42 | 1012.8 |
| 20260905200707 | 37 | 221 | 1.6 | 4.8 | 0.00 | 0.00 | 0.00 | 43 | 1012.6 |
| 20260905200202 | 36 | 222 | 6.4 | 11.3 | 0.00 | 0.00 | 0.00 | 43 | 1012.7 |
| 20260905195700 | 35 | 217 | 1.6 | 1.6 | 0.00 | 0.00 | 0.00 | 49 | 1012.8 |
| 20260905195154 | 36 | 219 | 1.6 | 6.4 | 0.00 | 0.00 | 0.00 | 47 | 1012.9 |
| 20260905194650 | 36 | 222 | 1.6 | 9.7 | 0.00 | 0.00 | 0.00 | 46 | 1013.0 |
| 20260905194149 | 37 | 218 | 0.0 | 1.6 | 0.00 | 0.00 | 0.00 | 44 | 1013.1 |
| 20260905193644 | 36 | 217 | 1.6 | 4.8 | 0.00 | 0.00 | 0.00 | 45 | 1013.1 |
| 20260905193139 | 36 | 216 | 3.2 | 4.8 | 0.00 | 0.00 | 0.00 | 47 | 1013.1 |
| 20260905192635 | 36 | 213 | 1.6 | 3.2 | 0.00 | 0.00 | 0.00 | 47 | 1013.2 |
| 20260905192131 | 36 | 230 | 0.0 | 0.0 | 0.00 | 0.00 | 0.00 | 45 | 1013.2 |
| 20260905191631 | 36 | 217 | 0.0 | 3.2 | 0.00 | 0.00 | 0.00 | 47 | 1013.3 |
| 20260905191129 | 35 | 219 | 0.0 | 6.4 | 0.00 | 0.00 | 0.00 | 48 | 1013.4 |
| 20260905190627 | 36 | 219 | 1.6 | 1.6 | 0.00 | 0.00 | 0.00 | 48 | 1013.4 |
| 20260905190127 | 36 | 221 | 0.0 | 0.0 | 0.00 | 0.00 | 0.00 | 47 | 1013.6 |
| 20260905185626 | 36 | 219 | 1.6 | 1.6 | 0.00 | 0.00 | 0.00 | 47 | 1013.6 |
| 20260905185120 | 36 | 218 | 0.0 | 3.2 | 0.00 | 0.00 | 0.00 | 49 | 1013.4 |
| 20260905184615 | 36 | 223 | 1.6 | 4.8 | 0.00 | 0.00 | 0.00 | 47 | 1013.5 |
| 20260905184114 | 36 | 218 | 1.6 | 3.2 | 0.00 | 0.00 | 0.00 | 49 | 1013.7 |
| 20260905183613 | 35 | 213 | 1.6 | 4.8 | 0.00 | 0.00 | 0.00 | 52 | 1013.7 |
| 20260905183108 | 35 | 218 | 0.0 | 1.6 | 0.00 | 0.00 | 0.00 | 52 | 1013.8 |
| 20260905182608 | 35 | 209 | 0.0 | 3.2 | 0.00 | 0.00 | 0.00 | 53 | 1013.6 |
| 20260905182102 | 35 | 214 | 1.6 | 6.4 | 0.00 | 0.00 | 0.00 | 53 | 1013.8 |
| 20260905181557 | 35 | 217 | 0.0 | 6.4 | 0.00 | 0.00 | 0.00 | 56 | 1014.0 |
| 20260905181056 | 35 | 220 | 6.4 | 9.7 | 0.00 | 0.00 | 0.00 | 54 | 1014.3 |
| 20260905180551 | 35 | 217 | 3.2 | 9.7 | 0.00 | 0.00 | 0.00 | 56 | 1014.1 |
| 20260905180046 | 35 | 218 | 1.6 | 4.8 | 0.00 | 0.00 | 0.00 | 53 | 1014.2 |
| 20260905175545 | 35 | 219 | 1.6 | 1.6 | 0.00 | 0.00 | 0.00 | 58 | 1014.2 |
| 20260905175041 | 35 | 218 | 0.0 | 6.4 | 0.00 | 0.00 | 0.00 | 59 | 1014.2 |
| 20260905174537 | 35 | 220 | 4.8 | 11.3 | 0.00 | 0.00 | 0.00 | 57 | 1014.3 |
| 20260905174032 | 35 | 219 | 3.2 | 4.8 | 0.00 | 0.00 | 0.00 | 59 | 1014.5 |
| 20260905173528 | 34 | 218 | 3.2 | 3.2 | 0.00 | 0.00 | 0.00 | 61 | 1014.3 |
| 20260905173023 | 34 | 218 | 0.0 | 0.0 | 0.00 | 0.00 | 0.00 | 61 | 1014.6 |
| 20260905172521 | 34 | 217 | 6.4 | 6.4 | 0.00 | 0.00 | 0.00 | 60 | 1014.6 |
| 20260905172017 | 34 | 217 | 3.2 | 9.7 | 0.00 | 0.00 | 0.00 | 60 | 1014.6 |
| 20260905171514 | 33 | 220 | 4.8 | 6.4 | 0.00 | 0.00 | 0.00 | 62 | 1014.9 |
| 20260905171009 | 33 | 218 | 0.0 | 3.2 | 0.00 | 0.00 | 0.00 | 63 | 1014.6 |
| 20260905170506 | 33 | 218 | 0.0 | 3.2 | 0.00 | 0.00 | 0.00 | 63 | 1014.8 |
| 20260905170000 | 33 | 217 | 1.6 | 4.8 | 0.00 | 0.00 | 0.00 | 62 | 1014.7 |
| 20260905165455 | 33 | 219 | 4.8 | 11.3 | 0.00 | 0.00 | 0.00 | 61 | 1014.9 |
| 20260905164950 | 33 | 214 | 1.6 | 4.8 | 0.00 | 0.00 | 0.00 | 62 | 1014.9 |
| 20260905164450 | 33 | 218 | 0.0 | 0.0 | 0.00 | 0.00 | 0.00 | 64 | 1015.0 |
| 20260905163944 | 33 | 214 | 0.0 | 4.8 | 0.00 | 0.00 | 0.00 | 64 | 1015.2 |
| 20260905163442 | 32 | 215 | 0.0 | 6.4 | 0.00 | 0.00 | 0.00 | 65 | 1014.9 |
| 20260905162937 | 32 | 217 | 3.2 | 6.4 | 0.00 | 0.00 | 0.00 | 65 | 1015.2 |
| 20260905162432 | 32 | 210 | 0.0 | 6.4 | 0.00 | 0.00 | 0.00 | 66 | 1015.3 |
| 20260905161927 | 32 | 217 | 1.6 | 3.2 | 0.00 | 0.00 | 0.00 | 65 | 1015.3 |
| 20260905161426 | 32 | 212 | 0.0 | 1.6 | 0.00 | 0.00 | 0.00 | 67 | 1015.4 |
| 20260905160924 | 32 | 212 | 3.2 | 6.4 | 0.00 | 0.00 | 0.00 | 66 | 1015.5 |
| 20260905160418 | 32 | 210 | 0.0 | 3.2 | 0.00 | 0.00 | 0.00 | 67 | 1015.5 |
| 20260905155913 | 32 | 215 | 3.2 | 4.8 | 0.00 | 0.00 | 0.00 | 68 | 1015.4 |
| 20260905155412 | 31 | 217 | 0.0 | 1.6 | 0.00 | 0.00 | 0.00 | 70 | 1015.6 |
| 20260905154911 | 31 | 219 | 1.6 | 4.8 | 0.00 | 0.00 | 0.00 | 70 | 1015.6 |
| 20260905154407 | 31 | 220 | 0.0 | 3.2 | 0.00 | 0.00 | 0.00 | 70 | 1015.7 |
| 20260905153903 | 31 | 219 | 3.2 | 3.2 | 0.00 | 0.00 | 0.00 | 71 | 1015.8 |
| 20260905153359 | 31 | 215 | 1.6 | 3.2 | 0.00 | 0.00 | 0.00 | 70 | 1015.9 |
| 20260905152858 | 31 | 210 | 0.0 | 4.8 | 0.00 | 0.00 | 0.00 | 69 | 1016.1 |
| 20260905152357 | 31 | 217 | 0.0 | 0.0 | 0.00 | 0.00 | 0.00 | 73 | 1015.8 |
| 20260905151853 | 31 | 217 | 3.2 | 3.2 | 0.00 | 0.00 | 0.00 | 74 | 1016.1 |
| 20260905151348 | 31 | 215 | 0.0 | 1.6 | 0.00 | 0.00 | 0.00 | 73 | 1015.9 |
| 20260905150843 | 31 | 205 | 0.0 | 1.6 | 0.00 | 0.00 | 0.00 | 75 | 1016.2 |
| 20260905150337 | 31 | 221 | 1.6 | 3.2 | 0.00 | 0.00 | 0.00 | 74 | 1015.9 |
| 20260905145834 | 31 | 216 | 0.0 | 0.0 | 0.00 | 0.00 | 0.00 | 74 | 1015.8 |
| 20260905145329 | 30 | 221 | 0.0 | 0.0 | 0.00 | 0.00 | 0.00 | 74 | 1016.2 |
| 20260905144827 | 30 | 215 | 0.0 | 1.6 | 0.00 | 0.00 | 0.00 | 76 | 1016.0 |
| 20260905144323 | 30 | 212 | 0.0 | 1.6 | 0.00 | 0.00 | 0.00 | 75 | 1016.1 |
| 20260905143822 | 30 | 210 | 0.0 | 0.0 | 0.00 | 0.00 | 0.00 | 75 | 1016.1 |
| 20260905143316 | 30 | 216 | 0.0 | 0.0 | 0.00 | 0.00 | 0.00 | 78 | 1016.2 |
| 20260905142815 | 29 | 211 | 0.0 | 0.0 | 0.00 | 0.00 | 0.00 | 77 | 1016.2 |
| 20260905142310 | 29 | 215 | 0.0 | 1.6 | 0.00 | 0.00 | 0.00 | 79 | 1016.3 |
| 20260905141806 | 29 | 206 | 0.0 | 0.0 | 0.00 | 0.00 | 0.00 | 80 | 1016.4 |
| 20260905141301 | 29 | 215 | 0.0 | 0.0 | 0.00 | 0.00 | 0.00 | 79 | 1016.3 |
| 20260905140756 | 28 | 211 | 0.0 | 0.0 | 0.00 | 0.00 | 0.00 | 81 | 1016.5 |
| 20260905140250 | 28 | 213 | 0.0 | 0.0 | 0.00 | 0.00 | 0.00 | 81 | 1016.2 |
| 20260905135749 | 28 | 217 | 0.0 | 0.0 | 0.00 | 0.00 | 0.00 | 82 | 1016.2 |
| 20260905135245 | 28 | 216 | 0.0 | 0.0 | 0.00 | 0.00 | 0.00 | 82 | 1016.2 |
| 20260905134745 | 28 | 213 | 0.0 | 0.0 | 0.00 | 0.00 | 0.00 | 83 | 1016.4 |
| 20260905134239 | 27 | 215 | 0.0 | 0.0 | 0.00 | 0.00 | 0.00 | 85 | 1016.5 |
| 20260905133734 | 27 | 215 | 0.0 | 3.2 | 0.00 | 0.00 | 0.00 | 86 | 1016.4 |
| 20260905133229 | 27 | 213 | 0.0 | 0.0 | 0.00 | 0.00 | 0.00 | 85 | 1016.7 |
| 20260905132728 | 27 | 211 | 0.0 | 0.0 | 0.00 | 0.00 | 0.00 | 86 | 1016.6 |
| 20260905132224 | 27 | 211 | 0.0 | 0.0 | 0.00 | 0.00 | 0.00 | 86 | 1016.6 |
| 20260905131719 | 27 | 211 | 0.0 | 0.0 | 0.00 | 0.00 | 0.00 | 86 | 1016.7 |
| 20260905131214 | 27 | 211 | 0.0 | 0.0 | 0.00 | 0.00 | 0.00 | 85 | 1016.7 |
| 20260905130714 | 27 | 213 | 0.0 | 0.0 | 0.00 | 0.00 | 0.00 | 86 | 1016.6 |
| 20260905130208 | 27 | 213 | 0.0 | 0.0 | 0.00 | 0.00 | 0.00 | 87 | 1016.8 |
| 20260905125703 | 27 | 206 | 0.0 | 0.0 | 0.00 | 0.00 | 0.00 | 88 | 1016.7 |
| 20260905125158 | 27 | 213 | 0.0 | 0.0 | 0.00 | 0.00 | 0.00 | 88 | 1016.7 |
| 20260905124654 | 27 | 206 | 0.0 | 0.0 | 0.00 | 0.00 | 0.00 | 88 | 1016.7 |
| 20260905124150 | 26 | 213 | 0.0 | 0.0 | 0.00 | 0.00 | 0.00 | 89 | 1016.8 |
| 20260905123645 | 26 | 206 | 0.0 | 0.0 | 0.00 | 0.00 | 0.00 | 88 | 1016.6 |
| 20260905123142 | 26 | 213 | 0.0 | 0.0 | 0.00 | 0.00 | 0.00 | 92 | 1016.6 |
| 20260905122641 | 25 | 213 | 0.0 | 0.0 | 0.00 | 0.00 | 0.00 | 94 | 1016.7 |
| 20260905122137 | 24 | 213 | 0.0 | 0.0 | 0.00 | 0.00 | 0.00 | 97 | 1016.6 |
| 20260905121631 | 24 | 213 | 0.0 | 0.0 | 0.00 | 0.00 | 0.00 | 99 | 1016.6 |
| 20260905121127 | 23 | 213 | 0.0 | 0.0 | 0.00 | 0.00 | 0.00 | 99 | 1016.6 |
| 20260905120626 | 22 | 213 | 0.0 | 0.0 | 0.00 | 0.00 | 0.00 | 99 | 1016.5 |
| 20260905120121 | 22 | 213 | 0.0 | 0.0 | 0.00 | 0.00 | 0.00 | 99 | 1016.5 |
| 20260905115620 | 22 | 208 | 0.0 | 0.0 | 0.00 | 0.00 | 0.00 | 99 | 1016.6 |
| 20260905115115 | 22 | 208 | 0.0 | 0.0 | 0.00 | 0.00 | 0.00 | 99 | 1016.4 |
| 20260905114614 | 22 | 208 | 0.0 | 0.0 | 0.00 | 0.00 | 0.00 | 99 | 1016.3 |
| 20260905114113 | 22 | 208 | 0.0 | 0.0 | 0.00 | 0.00 | 0.00 | 99 | 1016.2 |
| 20260905113603 | 22 | 208 | 0.0 | 0.0 | 0.00 | 0.00 | 0.00 | 99 | 1016.1 |
| 20260905113057 | 22 | 208 | 0.0 | 0.0 | 0.00 | 0.00 | 0.00 | 99 | 1015.9 |
| 20260905112547 | 22 | 208 | 0.0 | 0.0 | 0.00 | 0.00 | 0.00 | 99 | 1016.1 |
| 20260905112042 | 22 | 208 | 0.0 | 0.0 | 0.00 | 0.00 | 0.00 | 99 | 1015.8 |
| 20260905111537 | 22 | 208 | 0.0 | 0.0 | 0.00 | 0.00 | 0.00 | 99 | 1015.7 |
| 20260905111036 | 22 | 208 | 0.0 | 0.0 | 0.00 | 0.00 | 0.00 | 99 | 1015.6 |
| 20260905110535 | 22 | 208 | 0.0 | 0.0 | 0.00 | 0.00 | 0.00 | 99 | 1015.6 |
| 20260905110030 | 22 | 208 | 0.0 | 0.0 | 0.00 | 0.00 | 0.00 | 99 | 1015.6 |
| 20260905105525 | 22 | 208 | 0.0 | 0.0 | 0.00 | 0.00 | 0.00 | 99 | 1015.4 |
| 20260905105024 | 22 | 213 | 0.0 | 0.0 | 0.00 | 0.00 | 0.00 | 99 | 1015.4 |
| 20260905104520 | 22 | 213 | 0.0 | 0.0 | 0.00 | 0.00 | 0.00 | 99 | 1015.3 |
| 20260905104020 | 22 | 208 | 0.0 | 0.0 | 0.00 | 0.00 | 0.00 | 99 | 1015.4 |
| 20260905103515 | 22 | 213 | 0.0 | 0.0 | 0.00 | 0.00 | 0.00 | 99 | 1015.4 |
| 20260905103012 | 22 | 208 | 0.0 | 0.0 | 0.00 | 0.00 | 0.00 | 99 | 1015.3 |
| 20260905102507 | 22 | 208 | 0.0 | 0.0 | 0.00 | 0.00 | 0.00 | 99 | 1015.4 |
| 20260905102003 | 22 | 213 | 0.0 | 0.0 | 0.00 | 0.00 | 0.00 | 99 | 1015.3 |
| 20260905101501 | 22 | 208 | 0.0 | 0.0 | 0.00 | 0.00 | 0.00 | 99 | 1015.5 |
| 20260905101000 | 22 | 213 | 0.0 | 0.0 | 0.00 | 0.00 | 0.00 | 99 | 1015.4 |
| 20260905100456 | 22 | 208 | 0.0 | 0.0 | 0.00 | 0.00 | 0.00 | 99 | 1015.5 |
| 20260905095955 | 22 | 208 | 0.0 | 0.0 | 0.00 | 0.00 | 0.00 | 99 | 1015.5 |
| 20260905095450 | 22 | 208 | 0.0 | 0.0 | 0.00 | 0.00 | 0.00 | 99 | 1015.4 |
| 20260905094945 | 22 | 208 | 0.0 | 0.0 | 0.00 | 0.00 | 0.00 | 99 | 1015.3 |
| 20260905094441 | 22 | 216 | 0.0 | 0.0 | 0.00 | 0.00 | 0.00 | 99 | 1015.5 |
| 20260905093939 | 22 | 208 | 0.0 | 0.0 | 0.00 | 0.00 | 0.00 | 99 | 1015.3 |
| 20260905093435 | 22 | 208 | 0.0 | 0.0 | 0.00 | 0.00 | 0.00 | 99 | 1015.2 |
| 20260905092931 | 22 | 216 | 0.0 | 0.0 | 0.00 | 0.00 | 0.00 | 99 | 1015.4 |
| 20260905092426 | 22 | 215 | 0.0 | 0.0 | 0.00 | 0.00 | 0.00 | 99 | 1015.3 |
| 20260905091920 | 22 | 216 | 0.0 | 0.0 | 0.00 | 0.00 | 0.00 | 99 | 1015.3 |
| 20260905091415 | 22 | 215 | 0.0 | 0.0 | 0.00 | 0.00 | 0.00 | 99 | 1015.3 |
| 20260905090914 | 22 | 216 | 0.0 | 0.0 | 0.00 | 0.00 | 0.00 | 99 | 1015.4 |
| 20260905090410 | 22 | 213 | 0.0 | 0.0 | 0.00 | 0.00 | 0.00 | 99 | 1015.2 |
| 20260905085909 | 22 | 215 | 0.0 | 0.0 | 0.00 | 0.00 | 0.00 | 99 | 1015.2 |
| 20260905085409 | 23 | 213 | 0.0 | 0.0 | 0.00 | 0.00 | 0.00 | 99 | 1015.3 |
| 20260905084905 | 23 | 213 | 0.0 | 0.0 | 0.00 | 0.00 | 0.00 | 99 | 1015.2 |
| 20260905084403 | 23 | 213 | 0.0 | 0.0 | 0.00 | 0.00 | 0.00 | 99 | 1015.4 |
| 20260905083859 | 23 | 215 | 0.0 | 0.0 | 0.00 | 0.00 | 0.00 | 99 | 1015.1 |
| 20260905083354 | 23 | 215 | 0.0 | 0.0 | 0.00 | 0.00 | 0.00 | 99 | 1015.3 |
| 20260905082850 | 23 | 216 | 0.0 | 0.0 | 0.00 | 0.00 | 0.00 | 99 | 1015.1 |
| 20260905082346 | 23 | 216 | 0.0 | 0.0 | 0.00 | 0.00 | 0.00 | 99 | 1015.5 |
| 20260905081841 | 23 | 215 | 0.0 | 0.0 | 0.00 | 0.00 | 0.00 | 99 | 1015.3 |
| 20260905081336 | 23 | 215 | 0.0 | 0.0 | 0.00 | 0.00 | 0.00 | 99 | 1015.4 |
| 20260905080835 | 23 | 215 | 0.0 | 0.0 | 0.00 | 0.00 | 0.00 | 99 | 1015.2 |
| 20260905080335 | 23 | 215 | 0.0 | 0.0 | 0.00 | 0.00 | 0.00 | 99 | 1015.4 |
| 20260905075833 | 23 | 215 | 0.0 | 0.0 | 0.00 | 0.00 | 0.00 | 99 | 1015.4 |
| 20260905075328 | 23 | 215 | 0.0 | 0.0 | 0.00 | 0.00 | 0.00 | 99 | 1015.4 |
| 20260905074827 | 23 | 212 | 0.0 | 0.0 | 0.00 | 0.00 | 0.00 | 99 | 1015.4 |
| 20260905074323 | 23 | 213 | 0.0 | 0.0 | 0.00 | 0.00 | 0.00 | 99 | 1015.4 |
| 20260905073819 | 23 | 213 | 0.0 | 0.0 | 0.00 | 0.00 | 0.00 | 99 | 1015.0 |
| 20260905073313 | 23 | 213 | 0.0 | 0.0 | 0.00 | 0.00 | 0.00 | 99 | 1015.3 |
| 20260905072808 | 23 | 213 | 0.0 | 0.0 | 0.00 | 0.00 | 0.00 | 99 | 1015.1 |
| 20260905072306 | 23 | 208 | 0.0 | 0.0 | 0.00 | 0.00 | 0.00 | 99 | 1015.1 |
| 20260905071800 | 23 | 208 | 0.0 | 0.0 | 0.00 | 0.00 | 0.00 | 98 | 1015.2 |
| 20260905071256 | 23 | 208 | 0.0 | 0.0 | 0.00 | 0.00 | 0.00 | 98 | 1015.2 |
| 20260905070750 | 23 | 208 | 0.0 | 0.0 | 0.00 | 0.00 | 0.00 | 98 | 1015.3 |
| 20260905070247 | 23 | 208 | 0.0 | 0.0 | 0.00 | 0.00 | 0.00 | 98 | 1015.1 |
| 20260905065745 | 23 | 208 | 0.0 | 0.0 | 0.00 | 0.00 | 0.00 | 98 | 1015.2 |
| 20260905065239 | 23 | 215 | 0.0 | 0.0 | 0.00 | 0.00 | 0.00 | 98 | 1015.3 |
| 20260905064734 | 23 | 215 | 0.0 | 0.0 | 0.00 | 0.00 | 0.00 | 98 | 1015.2 |
| 20260905064230 | 23 | 215 | 0.0 | 0.0 | 0.00 | 0.00 | 0.00 | 97 | 1015.0 |
| 20260905063728 | 23 | 215 | 0.0 | 0.0 | 0.00 | 0.00 | 0.00 | 97 | 1015.3 |
| 20260905063224 | 23 | 213 | 0.0 | 0.0 | 0.00 | 0.00 | 0.00 | 97 | 1015.0 |
| 20260905062720 | 23 | 213 | 0.0 | 0.0 | 0.00 | 0.00 | 0.00 | 96 | 1015.1 |
| 20260905062219 | 23 | 213 | 0.0 | 0.0 | 0.00 | 0.00 | 0.00 | 96 | 1015.0 |
| 20260905061714 | 23 | 215 | 0.0 | 0.0 | 0.00 | 0.00 | 0.00 | 96 | 1014.8 |
| 20260905061209 | 24 | 215 | 0.0 | 0.0 | 0.00 | 0.00 | 0.00 | 96 | 1015.0 |
| 20260905060704 | 24 | 215 | 0.0 | 0.0 | 0.00 | 0.00 | 0.00 | 96 | 1015.2 |
| 20260905060201 | 24 | 212 | 0.0 | 0.0 | 0.00 | 0.00 | 0.00 | 96 | 1015.1 |
| 20260905055659 | 24 | 208 | 0.0 | 0.0 | 0.00 | 0.00 | 0.00 | 96 | 1015.3 |
| 20260905055154 | 24 | 216 | 0.0 | 0.0 | 0.00 | 0.00 | 0.00 | 96 | 1015.2 |
| 20260905054649 | 24 | 216 | 0.0 | 0.0 | 0.00 | 0.00 | 0.00 | 96 | 1015.2 |
| 20260905054145 | 24 | 216 | 0.0 | 0.0 | 0.00 | 0.00 | 0.00 | 95 | 1015.2 |
| 20260905053645 | 24 | 207 | 0.0 | 0.0 | 0.00 | 0.00 | 0.00 | 96 | 1015.1 |
| 20260905053140 | 24 | 207 | 0.0 | 0.0 | 0.00 | 0.00 | 0.00 | 95 | 1015.4 |
| 20260905052639 | 24 | 207 | 0.0 | 0.0 | 0.00 | 0.00 | 0.00 | 95 | 1015.4 |
| 20260905052135 | 24 | 207 | 0.0 | 0.0 | 0.00 | 0.00 | 0.00 | 95 | 1015.4 |
| 20260905051629 | 24 | 216 | 0.0 | 0.0 | 0.00 | 0.00 | 0.00 | 95 | 1015.5 |
| 20260905051126 | 24 | 215 | 0.0 | 0.0 | 0.00 | 0.00 | 0.00 | 94 | 1015.4 |
| 20260905050622 | 24 | 215 | 0.0 | 0.0 | 0.00 | 0.00 | 0.00 | 94 | 1015.6 |
| 20260905050119 | 24 | 215 | 0.0 | 0.0 | 0.00 | 0.00 | 0.00 | 94 | 1015.6 |
| 20260905045618 | 24 | 213 | 0.0 | 0.0 | 0.00 | 0.00 | 0.00 | 95 | 1015.6 |
| 20260905045114 | 24 | 213 | 0.0 | 0.0 | 0.00 | 0.00 | 0.00 | 95 | 1015.7 |
| 20260905044614 | 24 | 207 | 0.0 | 0.0 | 0.00 | 0.00 | 0.00 | 95 | 1015.9 |
| 20260905044109 | 24 | 207 | 0.0 | 0.0 | 0.00 | 0.00 | 0.00 | 95 | 1015.6 |
| 20260905043607 | 25 | 215 | 0.0 | 0.0 | 0.00 | 0.00 | 0.00 | 95 | 1015.4 |
| 20260905043103 | 24 | 215 | 0.0 | 0.0 | 0.00 | 0.00 | 0.00 | 95 | 1015.7 |
| 20260905042601 | 25 | 215 | 0.0 | 0.0 | 0.00 | 0.00 | 0.00 | 95 | 1015.6 |
| 20260905042057 | 25 | 215 | 0.0 | 0.0 | 0.00 | 0.00 | 0.00 | 95 | 1015.8 |
| 20260905041552 | 25 | 215 | 0.0 | 0.0 | 0.00 | 0.00 | 0.00 | 95 | 1015.8 |
| 20260905041048 | 25 | 215 | 0.0 | 0.0 | 0.00 | 0.00 | 0.00 | 94 | 1015.6 |
| 20260905040547 | 25 | 215 | 0.0 | 0.0 | 0.00 | 0.00 | 0.00 | 94 | 1015.5 |